Home   Weather   Uíge   Past weeks
Flag for Angola

Past Weather in Uíge, Angola — Yesterday and Last 2 Weeks

Now
72 °F

Passing clouds.


Feels Like: 67 °F
Forecast: 87 / 67 °F
Wind: 6 mph from Southeast

Location: Luanda Airport

Current Time: Sep 22, 2019 at 4:56:53 am

Latest Report: Sep 22, 2019 at 4:00 am


Visibility: 5 mi

Pressure: 29.89 "Hg (27.21 "Hg at 811m altitude)

Humidity: 94%

Dew Point: 70 °F

Location of UígeLocation

Past Weather in Uíge — Graph

°F

Uíge Temperature Yesterday

Maximum temperature yesterday: 82 °F (at 12:00 pm)
Minimum temperature yesterday: 72 °F (at 5:00 am)
Average temperature yesterday: 76 °F

High & Low Weather Summary for the Past Weeks

 TemperatureHumidityPressure
High84 °F (Sep 9, 11:00 am)100% (Sep 7, 4:00 am)30.04 "Hg (Sep 7, 4:00 am)
Low70 °F (Sep 7, 4:00 am)62% (Sep 15, 12:00 pm)29.80 "Hg (Sep 17, 5:00 pm)
Average75 °F85%29.92 "Hg
* Reported Sep 7 4:00 am — Sep 22 4:00 am, Uíge. Weather by CustomWeather, © 2019

Note: Actual official high and low records may vary slightly from our data, if they occured in-between our weather recording intervals... More about our weather records

Advertising

Uíge Weather History for the Previous 24 Hours

Scroll right to see more
 ConditionsComfort  
Time TempWeatherWind HumidityBarometerVisibility
4:00 am
Sun, Sep 22
72 °FPassing clouds.6 mph94%29.89 "Hg5 mi
3:00 am72 °FPassing clouds.6 mph94%29.89 "Hg5 mi
2:00 am72 °FPassing clouds.7 mph94%29.89 "Hg5 mi
1:00 am72 °FPassing clouds.6 mph94%29.89 "Hg5 mi
12:00 am73 °FPassing clouds.6 mph89%29.92 "Hg5 mi
11:00 pm
Sat, Sep 21
73 °FPassing clouds.7 mph89%29.92 "Hg5 mi
10:00 pm73 °FPassing clouds.8 mph89%29.92 "Hg5 mi
9:00 pm73 °FPassing clouds.8 mph89%29.89 "Hg5 mi
7:00 pm73 °FPassing clouds.10 mph89%29.86 "Hg5 mi
6:00 pm75 °FSunny.10 mph78%29.86 "Hg10 mi
5:00 pm77 °FSunny.12 mph79%29.86 "Hg10 mi
4:00 pm79 °FSunny.13 mph74%29.83 "Hg10 mi
3:00 pm79 °FSunny.12 mph74%29.86 "Hg10 mi
2:00 pm81 °FSunny.9 mph70%29.86 "Hg10 mi
1:00 pm81 °FSunny.8 mph70%29.89 "Hg10 mi
12:00 pm82 °FPassing clouds.8 mph62%29.92 "HgN/A
11:00 am81 °FPassing clouds.7 mph66%29.95 "HgN/A
10:00 am81 °FScattered clouds.6 mph66%29.98 "HgN/A
9:00 am79 °FPassing clouds.3 mph70%29.98 "HgN/A
8:00 am77 °FScattered clouds.3 mph74%29.98 "HgN/A
7:00 am73 °FScattered clouds.5 mph83%29.92 "Hg6 mi
5:00 am72 °FPassing clouds.3 mph88%29.89 "Hg5 mi
Weather by CustomWeather, © 2019

See weather overview